TimeCDT,TemperatureF,Dew PointF,Humidity,Sea Level PressureIn,VisibilityMPH,Wind Direction,Wind SpeedMPH,Gust SpeedMPH,PrecipitationIn,Events,Conditions,WindDirDegrees,DateUTC
12:15 AM,59.0,58.6,99,29.84,4.0,SE,5.8,-,0.04,Rain,Rain,130,2013-05-10 05:15:00
12:55 AM,59.0,59.0,100,29.82,7.0,SSE,4.6,-,0.08,,Light Drizzle,160,2013-05-10 05:55:00
1:15 AM,59.0,59.0,100,29.81,7.0,SSE,4.6,-,N/A,,Overcast,160,2013-05-10 06:15:00
1:35 AM,59.0,59.0,100,29.81,5.0,Calm,Calm,-,N/A,,Overcast,0,2013-05-10 06:35:00
1:55 AM,59.4,59.4,100,29.80,5.0,Calm,Calm,-,N/A,,Overcast,0,2013-05-10 06:55:00
2:15 AM,59.5,59.5,100,29.79,5.0,Calm,Calm,-,N/A,,Overcast,0,2013-05-10 07:15:00
2:35 AM,59.5,59.5,100,29.79,4.0,SW,8.1,-,N/A,,Overcast,220,2013-05-10 07:35:00
2:55 AM,59.7,59.7,100,29.79,4.0,SW,9.2,-,N/A,,Overcast,220,2013-05-10 07:55:00
3:15 AM,59.9,59.9,100,29.79,4.0,SW,8.1,-,N/A,,Overcast,220,2013-05-10 08:15:00
3:55 AM,60.1,60.1,100,29.78,4.0,SW,9.2,-,N/A,,Overcast,220,2013-05-10 08:55:00
4:15 AM,60.1,60.1,100,29.79,5.0,SW,10.4,-,N/A,,Overcast,230,2013-05-10 09:15:00
4:35 AM,60.1,59.9,99,29.78,7.0,SW,9.2,-,N/A,,Overcast,230,2013-05-10 09:35:00
4:55 AM,59.9,59.5,99,29.78,7.0,SW,9.2,-,N/A,,Overcast,230,2013-05-10 09:55:00
5:15 AM,59.9,59.4,98,29.77,7.0,SW,9.2,-,N/A,,Overcast,220,2013-05-10 10:15:00
5:35 AM,59.9,59.2,97,29.78,5.0,SW,10.4,17.3,N/A,,Overcast,230,2013-05-10 10:35:00
5:55 AM,59.9,59.2,97,29.78,7.0,WSW,6.9,-,N/A,,Overcast,240,2013-05-10 10:55:00
6:15 AM,59.9,59.4,98,29.79,7.0,WSW,6.9,-,N/A,,Overcast,240,2013-05-10 11:15:00
6:35 AM,59.9,59.2,97,29.79,7.0,SW,6.9,-,N/A,,Overcast,230,2013-05-10 11:35:00
7:15 AM,54.7,52.7,93,29.81,2.5,WNW,5.8,-,N/A,,Overcast,290,2013-05-10 12:15:00
7:35 AM,48.7,47.8,97,29.83,2.0,WNW,10.4,-,N/A,,Overcast,300,2013-05-10 12:35:00
8:15 AM,45.5,45.5,100,29.84,2.5,WNW,8.1,-,N/A,,Overcast,290,2013-05-10 13:15:00
8:35 AM,44.6,44.4,99,29.84,4.0,WNW,9.2,16.1,N/A,,Overcast,300,2013-05-10 13:35:00
8:55 AM,44.2,44.1,99,29.85,5.0,NW,10.4,-,N/A,,Overcast,310,2013-05-10 13:55:00
9:15 AM,44.2,44.1,99,29.86,7.0,WNW,8.1,-,N/A,,Overcast,300,2013-05-10 14:15:00
9:35 AM,44.6,44.4,99,29.85,7.0,WNW,5.8,-,N/A,,Overcast,300,2013-05-10 14:35:00
9:55 AM,45.9,45.7,99,29.85,10.0,WNW,9.2,16.1,N/A,,Overcast,290,2013-05-10 14:55:00
10:15 AM,47.3,45.7,94,29.85,10.0,WNW,10.4,17.3,N/A,,Overcast,300,2013-05-10 15:15:00
10:35 AM,46.9,44.8,92,29.87,10.0,West,11.5,19.6,N/A,,Overcast,280,2013-05-10 15:35:00
10:55 AM,45.7,44.1,94,29.88,10.0,WNW,9.2,-,N/A,,Overcast,290,2013-05-10 15:55:00
11:15 AM,45.9,44.4,95,29.88,5.0,West,11.5,17.3,N/A,,Overcast,280,2013-05-10 16:15:00
11:35 AM,46.9,45.7,95,29.88,4.0,WNW,10.4,18.4,N/A,,Overcast,290,2013-05-10 16:35:00
12:15 PM,45.9,44.6,95,29.88,2.5,NW,12.7,17.3,N/A,,Overcast,320,2013-05-10 17:15:00
12:35 PM,46.4,45.1,95,29.88,2.0,NW,12.7,18.4,N/A,,Overcast,310,2013-05-10 17:35:00
12:55 PM,46.4,45.1,95,29.88,2.0,WNW,11.5,18.4,N/A,,Overcast,300,2013-05-10 17:55:00
1:15 PM,45.5,44.2,95,29.89,2.0,NW,12.7,17.3,N/A,,Overcast,310,2013-05-10 18:15:00
1:35 PM,44.6,43.5,96,29.90,1.8,NW,13.8,20.7,N/A,,Overcast,310,2013-05-10 18:35:00
1:55 PM,44.8,43.9,97,29.90,2.5,NW,11.5,17.3,N/A,,Overcast,310,2013-05-10 18:55:00
2:15 PM,44.2,43.5,97,29.91,1.8,NW,13.8,20.7,N/A,,Overcast,310,2013-05-10 19:15:00
2:35 PM,44.4,43.7,97,29.90,2.0,NW,16.1,21.9,N/A,,Overcast,320,2013-05-10 19:35:00
2:55 PM,43.9,43.2,97,29.90,2.0,NW,12.7,20.7,N/A,,Overcast,310,2013-05-10 19:55:00
3:15 PM,43.2,42.6,98,29.90,1.8,NNW,16.1,19.6,N/A,,Overcast,330,2013-05-10 20:15:00
3:35 PM,43.2,42.6,98,29.90,1.5,NNW,17.3,-,N/A,,Overcast,330,2013-05-10 20:35:00
3:55 PM,43.2,42.8,99,29.89,1.5,NNW,13.8,-,N/A,,Drizzle,330,2013-05-10 20:55:00
4:15 PM,42.8,42.4,99,29.89,1.8,NNW,12.7,20.7,N/A,Rain,Light Rain,340,2013-05-10 21:15:00
4:35 PM,42.8,42.4,99,29.90,1.5,North,13.8,21.9,N/A,,Overcast,350,2013-05-10 21:35:00
4:55 PM,42.6,42.3,99,29.90,1.8,NNW,11.5,-,N/A,,Overcast,340,2013-05-10 21:55:00
5:15 PM,43.0,42.8,99,29.89,4.0,NNW,11.5,-,N/A,,Overcast,330,2013-05-10 22:15:00
5:35 PM,42.8,42.6,99,29.90,4.0,NW,11.5,-,N/A,,Overcast,320,2013-05-10 22:35:00
5:55 PM,42.8,42.4,99,29.90,5.0,NNW,10.4,-,N/A,,Overcast,340,2013-05-10 22:55:00
6:15 PM,42.1,41.9,99,29.91,5.0,NNW,10.4,16.1,N/A,,Overcast,330,2013-05-10 23:15:00
6:35 PM,41.5,41.2,99,29.91,1.5,NW,13.8,-,N/A,,Overcast,320,2013-05-10 23:35:00
6:55 PM,41.2,41.0,99,29.92,0.8,NW,11.5,-,N/A,,Overcast,320,2013-05-10 23:55:00
7:15 PM,40.6,40.5,99,29.92,0.8,NNW,10.4,-,N/A,,Overcast,340,2013-05-11 00:15:00
7:35 PM,40.3,40.1,99,29.94,1.0,NW,10.4,16.1,N/A,,Overcast,320,2013-05-11 00:35:00
7:55 PM,40.3,40.1,99,29.94,0.8,NNW,10.4,-,N/A,,Overcast,330,2013-05-11 00:55:00
8:15 PM,40.1,40.1,100,29.95,0.8,NNW,10.4,-,N/A,,Overcast,330,2013-05-11 01:15:00
8:35 PM,40.1,40.1,100,29.95,1.0,NNW,8.1,-,N/A,,Overcast,340,2013-05-11 01:35:00
8:55 PM,40.1,39.7,99,29.95,0.8,NNW,9.2,-,N/A,,Overcast,340,2013-05-11 01:55:00
9:15 PM,40.1,40.1,100,29.95,0.8,NNW,8.1,-,N/A,,Overcast,330,2013-05-11 02:15:00
9:35 PM,40.1,40.1,100,29.96,1.0,NNW,10.4,-,N/A,,Overcast,330,2013-05-11 02:35:00
9:55 PM,40.1,40.1,100,29.95,1.0,NNW,11.5,-,N/A,,Overcast,340,2013-05-11 02:55:00
10:15 PM,40.5,40.3,99,29.95,2.0,NNW,8.1,-,N/A,,Overcast,330,2013-05-11 03:15:00
10:35 PM,40.5,40.3,99,29.95,1.8,NNW,6.9,-,N/A,,Overcast,330,2013-05-11 03:35:00
10:55 PM,40.6,40.5,99,29.95,1.0,NNW,6.9,-,N/A,,Overcast,330,2013-05-11 03:55:00
11:15 PM,40.6,40.5,99,29.95,1.0,NNW,6.9,-,N/A,,Overcast,330,2013-05-11 04:15:00
11:35 PM,40.8,40.6,99,29.95,1.2,NNW,6.9,-,N/A,,Overcast,340,2013-05-11 04:35:00
11:55 PM,41.0,40.6,99,29.94,2.0,NW,8.1,-,N/A,,Overcast,320,2013-05-11 04:55:00